User: anonymous   Login
Location: Caltech
(34.1382°N, 118.1253°W)
Time: 00:31:38
(UTC-07:00)
Language:

NOSS 3-2 (A) - Orbit

View from above orbital plane
View from above orbital plane
View from above satellite
View from above satellite

Ground track
Ground track

The orbit data is extracted from the following two-line orbital elements,

1 28095U 03054A   17289.05942520 0.00000010  00000-0  13430-4 0    09
2 28095  63.4194   3.5948 0314000 358.8405   1.1595 13.41352786    04
Epoch (UTC): 16 October 2017 01:25:34
Eccentricity: 0.0314000
inclination: 63.4194°
perigee height: 869 km
apogee height: 1339 km
right ascension of ascending node: 3.5948°
argument of perigee: 358.8405°
revolutions per day: 13.41352786
mean anomaly at epoch: 1.1595°
orbit number at epoch: 0

The dashed part of the orbit path shows where the satellite is in the earth's shadow,  

DLR